Regional Weather Roundup
Issued by NWS Jackson, KY

Home | Current Version | Previous Version | Graphics & Text | Print | Product List | Glossary On
Versions: 1 2 3 4 5 6 7 8 9 10 11 12 13 14 15 16 17 18 19 20 21 22 23 24 25 26 27 28 29 30 31 32 33 34 35 36 37 38 39 40 41 42 43 44 45 46 47 48 49 50
000
ASUS43 KJKL 271010
RWRJKL

EAST KENTUCKY HOURLY WEATHER ROUNDUP
NATIONAL WEATHER SERVICE JACKSON KY
600 AM EDT FRI MAY 27 2016

NOTE: "FAIR" INDICATES FEW OR NO CLOUDS BELOW 12,000 FEET WITH
NO SIGNIFICANT WEATHER AND/OR OBSTRUCTIONS TO VISIBILITY.

* THESE REPORTS ARE NOT UNDER NWS QUALITY CONTROL AND MAY NOT
  REPORT WEATHER SUCH AS PRECIPITATION AND FOG.

KYZ079-080-083-085-087-088-110-112-115-119-120-271100
...EASTERN KENTUCKY...

CITY           SKY/WX    TMP DP  RH WIND       PRES   REMARKS
JACKSON        MOCLDY    67  61  81 S3        30.09R
LONDON         CLEAR     61  59  93 CALM      30.08R
SOMERSET*      FOG       59  59 100 CALM      30.09R VSB 3/4
MONTICELLO*    CLEAR     63  61  93 W12       30.09R
WILLIAMSBURG*  SUNNY     63  59  88 SE7       30.09R
MIDDLESBORO*   CLEAR     59  59 100 CALM      30.12R
HARLAN APT*    CLOUDY    61  61 100 CALM      30.13R VSB 3/4
HAZARD APT*    MOSUNNY   63  63 100 CALM      30.09S
BLACK MTN*       N/A     63  57  82 SW5         N/A
PIKE CO APT*     N/A     65  63  93 SE5       30.10S
MOREHEAD APT*  CLOUDY    64  63  94 SE5       30.08S
ASHLAND*       CLOUDY    64  64 100 CALM      30.03S
$$

KYZ035-036-041-042-044-050-067-078-099-271100
...CENTRAL KENTUCKY...

CITY           SKY/WX    TMP DP  RH WIND       PRES   REMARKS
MT STERLING*   MOCLDY    64  63  94 SW5       30.07S
FLEMING/MASON* MOCLDY    62  62  99 E3        30.06S
DANVILLE*      CLEAR     63  61  94 CALM      30.07R
RICHMOND*      MOCLDY    66  61  82 CALM      30.05S
LEXINGTON      PTCLDY    63  60  90 CALM      30.05R
FRANKFORT      CLOUDY    64  61  90 E3        30.03S
LOUISVILLE     CLOUDY    65  62  90 SE6       30.01S
LEBANON*         N/A     63  63 100 CALM      30.04R
GLASGOW*       MOCLDY    63  63 100 CALM      30.03R
BOWLING GREEN  FOG       62  61  96 CALM      30.02S VSB 1/2
$$

KYZ091>093-OHZ055-061-077-WVZ005-015-034-035-042-271100
...SOUTHERN OHIO/WEST VIRGINIA...

CITY           SKY/WX    TMP DP  RH WIND       PRES   REMARKS
COVINGTON      CLOUDY    61  61 100 CALM      30.03S
COLUMBUS       CLOUDY    65  61  87 CALM      30.03F
DAYTON         MOCLDY    64  62  93 S8        30.04R
WILMINGTON     PTCLDY    62  61  96 S6        30.04S
HUNTINGTON     CLOUDY    66  63  90 CALM      30.06R
CHARLESTON       N/A     60  58  92 CALM      30.08S FOG
PINEVILLE*     CLOUDY    58  55  91 MISG      30.19R FOG
BECKLEY          N/A     58  55  90 CALM      30.16S
BLUEFIELD        N/A     58  53  84 SE3       30.18S
LOGAN CO APT*  PTSUNNY   66  61  82 CALM      30.11S
$$

VAZ002-007-008-TNZ017-027-036-066-071-271100
...SOUTHWEST VIRGINIA/EAST TENNESSEE...

CITY           SKY/WX    TMP DP  RH WIND       PRES   REMARKS
WISE*            N/A     59  57  94 SW3       30.18R
JONESVILLE*      N/A     57  57 100 CALM      30.14S
ABINGDON*        N/A     63  63  99 E3        30.15S
BRISTOL        PTCLDY    59  58  96 CALM      30.14R FOG
SEVIERVILLE*   SUNNY     61  61 100 CALM      30.09R
KNOXVILLE      PTCLDY    64  62  93 CALM      30.07S
OAK RIDGE      CLEAR     63  61  93 CALM      30.10R
CROSSVILLE     CLEAR     63  59  87 CALM      30.11R
NASHVILLE      MOCLDY    65  62  90 S3        30.02R
$$

...KEY TO REMARKS...
VSB - VISIBILITY IN MILES
WCI - WIND CHILL INDEX
HX  - HEAT INDEX

$$



USA.gov is the U.S. government's official web portal to all federal, state and local government web resources and services.